Satellite: ORSTED
Catalog number: 25635
Epoch time:      103054.99915667
Element set:     839 
Inclination:       96.4518 deg
RA of node:        39.9320 deg
Eccentricity:    0.0144525
Arg of perigee:   312.4982 deg
Mean anomaly:      46.4065 deg
Mean motion:   14.44855649 rev/day
Decay rate:    8.7600E-006 rev/day^2
Epoch rev:           21072
Checksum:              335

Satellite: SUNSAT
Catalog number: 25636
Epoch time:      103055.54204537
Element set:     666 
Inclination:       96.4540 deg
RA of node:        38.9898 deg
Eccentricity:    0.0148369
Arg of perigee:   317.2357 deg
Mean anomaly:      41.7369 deg
Mean motion:   14.42962816 rev/day
Decay rate:    4.1600E-006 rev/day^2
Epoch rev:           21067
Checksum:              328

Satellite: UOSATCatalog number: 25693
Epoch time:      103055.37545205
Element set:     732 
Inclination:       64.5606 deg
RA of node:       353.0121 deg
Eccentricity:    0.0020938
Arg of perigee:   315.8580 deg
Mean anomaly:      44.0856 deg
Mean motion:   14.76397222 rev/day
Decay rate:    5.2099E-006 rev/day^2
Epoch rev:           20711
Checksum:              299

Satellite: FENGYUN 1C
Catalog number: 25730
Epoch time:      103055.18131068
Element set:     774 
Inclination:       98.6338 deg
RA of node:        79.3699 deg
Eccentricity:    0.0014372
Arg of perigee:   350.3569 deg
Mean anomaly:       9.7325 deg
Mean motion:   14.117347Decay rate:    1.3999E-007 rev/day^2
Epoch rev:           19542
Checksum:              335

Satellite: ASTRA 1H
Catalog number: 25785
Epoch time:      103049.00000000
Element set:     372 
Inclination:        0.0122 deg
RA of node:       319.8851 deg
Eccentricity:    0.0002995
Arg of perigee:    65.1991 deg
Mean anomaly:     141.6651 deg
Mean motion:    1.00273184 rev/day
Decay rate:    1.1600E-006 rev/day^2
Epoch rev:            1349
Checksum:              242

Satellite: TERRA
Catalog number: 25994
Epoch time:      103055.28690628
Element set:     726 
Inclination:       98.1929 deg
RA of node:       131.4159 deg
Eccentricity:    0.0000925
Arg of perigee:   101.3213 deg
Mean anomaly:     258.8077 deg
Mean motion:   14.57137469 rev/day
Decay rate:    2.1299E-006 rev/day^2
Epoch rev:           16950
Checksum:              331

Satellite: JAWSAT
Catalog number: 26061
Epoch time:      103054.86771043
Element set:     772 
Inclination:      100.2077 deg
RA of node:       112.9196 deg
Eccentricity:    0.0034678
Arg of perigee:   264.2051 deg
Mean anomaly:      95.5168 deg
Mean motion:   14.37832498 rev/day
Decay rate:    4.8500E-006 rev/day^2
Epoch rev:           16129
Checksum:              306

Satellite: OPAL
Catalog number: 26063
Epoch time:      103054.71311252
Element set:     727 
Inclination:      100.2124 deg
RA of node:       110.2269 deg
Eccentricity:    0.0036760
Arg of perigee:   272.6232 deg
Mean anomaly:      87.0738 deg
Mean motion:   14.35483943 rev/day
Decay rate:    1.3899E-006 rev/day^2
Epoch rev:           16112
Checksum:              276

Satellite: ASUSAT
Catalog number: 26065
Epoch time:      103054.53048549
Element set:     740 
Inclination:      100.2103 deg
RA of node:       110.1601 deg
Eccentricity:    0.0036921
Arg of perigee:   274.0117 deg
Mean anomaly:      85.6843 deg
Mean motion:   14.35512001 rev/day
Decay rate:    1.8199E-006 rev/day^2
Epoch rev:           16109
Checksum:              353

Satellite: GOES 11
Catalog number: 26352
Epoch time:      103053.52359343
Element set:     35 
Inclination:        0.1489 deg
RA of node:       103.2366 deg
Eccentricity:    0.0003355
Arg of perigee:   225.5606 deg
Mean anomaly:     258.1973 deg
Mean motion:    1.00265981 rev/day
Decay rate:   -4.1000E-007 rev/day^2
Epoch rev:            1027
Checksum:              257

Satellite: EUTELSAT W4
Catalog number: 26369
Epoch time:      103049.96195201
Element set:     353 
Inclination:        0.0345 deg
RA of node:       349.9386 deg
Eccentricity:    0.0003063
Arg of perigee:   332Mean anomaly:     208.9102 deg
Mean motion:    1.00271808 rev/day
Decay rate:    1.5099E-006 rev/day^2
Epoch rev:            1005
Checksum:              264

Satellite: FENGYUN 2B
Catalog number: 26382
Epoch time:      103053.23914828
Element set:     799 
Inclination:        0.5576 deg
RA of node:       287.8957 deg
Eccentricity:    0.0001443
Arg of perigee:   207.1689 deg
Mean anomaly:     207.1969 deg
Mean motion:    1.00272978 rev/day
Decay rate:   -3.3700E-006 rev/day^2
Epoch rev:             974
Checksum:              329

Satellite: EUTELSAT W1
Catalog number: 26487
Epoch time:      103054.87867468
Element set:     359 
Inclination:        0.0314 deg
RA of node:       296.9935 deg
Eccentricity:    0.0003801
Arg of perigee:   337.3757 deg
Mean anomaly:     205.2521 deg
Mean motion:    1.00271547 rev/day
Decay rate:    5.6999E-007 rev/day^2
Epoch rev:             907
Checksum:              323

Satellite: ASTRA 2B
Catalog number: 26494
Epoch time:      103049.00000000
Element set:     255 
Inclination:        0.0178 deg
RA of node:       354.5658 deg
Eccentricity:    0.0005000
Arg of perigee:   302.8402 deg
Mean anomaly:     238.2911 deg
Mean motion:    1.00276704 rev/day
Decay rate:    1.4600E-006 rev/day^2
Epoch rev:             891
Checksum:              228

Satellite:Catalog number: 26536
Epoch time:      103054.75506688
Element set:     219 
Inclination:       98.9031 deg
RA of node:         3.0007 deg
Eccentricity:    0.0009889
Arg of perigee:   294.0830 deg
Mean anomaly:      65.9281 deg
Mean motion:   14.11909413 rev/day
Decay rate:    4.9099E-006 rev/day^2
Epoch rev:           12488
Checksum:              437

Satellite: SAUDISAT 1A
Catalog number: 26545
Epoch time:      103054.75231263
Element set:     419 
Inclination:       64.5596 deg
RA of node:        15.9904 deg
Eccentricity:    0.0051890
Arg of perigee:   237.8548 deg
Mean anomaly:     121.7527 deg
Mean motion:   14.78995830 Decay rate:    7.5600E-006 rev/day^2
Epoch rev:           12999
Checksum:              343

Satellite: UNISAT
Catalog number: 26547
Epoch time:      103054.80358523
Element set:     438 
Inclination:       64.5587 deg
RA of node:        18.0461 deg
Eccentricity:    0.0058891
Arg of perigee:   240.0012 deg
Mean anomaly:     119.5246 deg
Mean motion:   14.79771509 rev/day
Decay rate:    1.3930E-005 rev/day^2
Epoch rev:           12996
Checksum:              314

Satellite: TIUNGSAT 1
Catalog number: 26548
Epoch time:      103054.36174070
Element set:     419 
Inclination:       64.5590 deg
RA of node:        10.026Eccentricity:    0.0045033
Arg of perigee:   237.4467 deg
Mean anomaly:     122.2266 deg
Mean motion:   14.81288790 rev/day
Decay rate:    1.0609E-005 rev/day^2
Epoch rev:           13007
Checksum:              283

Satellite: SAUDISAT 1B
Catalog number: 26549
Epoch time:      103054.92745083
Element set:     700 
Inclination:       64.5533 deg
RA of node:        19.5945 deg
Eccentricity:    0.0056145
Arg of perigee:   238.0446 deg
Mean anomaly:     121.5138 deg
Mean motion:   14.77933816 rev/day
Decay rate:    8.2400E-006 rev/day^2
Epoch rev:           12993
Checksum:              313

Satellite: AMSAT OSCAR 40
Catalog number:Epoch time:      103050.21683058
Element set:     312 
Inclination:        8.1020 deg
RA of node:        63.9362 deg
Eccentricity:    0.7942557
Arg of perigee:   145.4197 deg
Mean anomaly:     310.7583 deg
Mean motion:    1.25596576 rev/day
Decay rate:   -1.7099E-006 rev/day^2
Epoch rev:            1059
Checksum:              389

Satellite: GOES 12
Catalog number: 26871
Epoch time:      103054.29037302
Element set:     835 
Inclination:        0.3145 deg
RA of node:       276.6195 deg
Eccentricity:    0.0003081
Arg of perigee:    11.1135 deg
Mean anomaly:     236.6051 deg
Mean motion:    1.00360832 rev/day
Decay rate:   -1.8399E-006 rev/day^2
Epoch rev:         Checksum:              268

Satellite: PCSAT
Catalog number: 26931
Epoch time:      103054.91398261
Element set:     416 
Inclination:       67.0473 deg
RA of node:       241.8532 deg
Eccentricity:    0.0005075
Arg of perigee:   268.7895 deg
Mean anomaly:      91.2623 deg
Mean motion:   14.29118111 rev/day
Decay rate:    1.1500E-006 rev/day^2
Epoch rev:            7311
Checksum:              283

Satellite: SAPPHIRE
Catalog number: 26932
Epoch time:      103055.52114159
Element set:     404 
Inclination:       67.0541 deg
RA of node:       239.9934 deg
Eccentricity:    0.0004647
Arg of perigee:   243.6338 deg
Mean anomaly:     116.4285 deg
Mean motion:   14.29296223 rev/day
Decay rate:    3.4999E-007 rev/day^2
Epoch rev:            7322
Checksum:              314

Satellite: ENVISAT
Catalog number: 27386
Epoch time:      103055.55304744
Element set:     959 
Inclination:       98.5451 deg
RA of node:       124.0104 deg
Eccentricity:    0.0000956
Arg of perigee:    93.6245 deg
Mean anomaly:     266.5049 deg
Mean motion:   14.32248310 rev/day
Decay rate:    3.0999E-007 rev/day^2
Epoch rev:            5160
Checksum:              422

Satellite: IDEFIX/ARIANE 
Catalog number: 27422
Epoch time:      103055.20796356
Element set:   Inclination:       98.6941 deg
RA of node:       134.3836 deg
Eccentricity:    0.0013229
Arg of perigee:   131.0081 deg
Mean anomaly:     229.2245 deg
Mean motion:   14.27973280 rev/day
Decay rate:    1.9399E-006 rev/day^2
Epoch rev:            4226
Checksum:              304

